When you browse on this site, cookies collect data to enhance your experience and personalize the content and advertising you see.
Visit our Privacy Policy to learn more. By continuing to use the site, you agree to this use of cookies and data.
  • In Schweiz
  • Länderverzeichnis
  • Für 7 Tage
  • Wassertemperatur
  • Wetterkarte
  • Widgets
  • user-avatar
    Anmelden

    Stündliche Wetter Sinee Uste

    Heute, 9 Dezember, Montag

    Zeit Temperatur Niederschläge Wind Luftdruck Luftfeuchtigkeit
    00:00 +4°C° 0.1 mm 7 m/S 737 mmHg 87%
    01:00 +4°C° 0.1 mm 7 m/S 737 mmHg 87%
    02:00 +4°C° 0 mm 7 m/S 737 mmHg 85%
    03:00 +4°C° 0.2 mm 7 m/S 737 mmHg 85%
    04:00 +4°C° 0.2 mm 7 m/S 737 mmHg 85%
    05:00 +4°C° 0.2 mm 7 m/S 737 mmHg 85%
    06:00 +4°C° 0 mm 6 m/S 737 mmHg 85%
    07:00 +5°C° 0 mm 6 m/S 737 mmHg 84%
    08:00 +4°C° 0 mm 6 m/S 738 mmHg 83%
    09:00 +4°C° 0 mm 6 m/S 738 mmHg 82%
    10:00 +4°C° 0 mm 6 m/S 739 mmHg 81%
    11:00 +4°C° 0 mm 6 m/S 739 mmHg 80%
    12:00 +4°C° 0 mm 6 m/S 740 mmHg 79%
    13:00 +5°C° 0 mm 5 m/S 740 mmHg 78%
    14:00 +5°C° 0 mm 5 m/S 740 mmHg 77%
    15:00 +5°C° 0 mm 5 m/S 741 mmHg 78%
    16:00 +5°C° 0 mm 5 m/S 741 mmHg 78%
    17:00 +5°C° 0 mm 5 m/S 741 mmHg 79%
    18:00 +5°C° 0 mm 5 m/S 742 mmHg 81%
    19:00 +3°C° 0 mm 5 m/S 743 mmHg 83%
    20:00 +3°C° 0 mm 5 m/S 743 mmHg 85%
    21:00 +3°C° 0 mm 5 m/S 744 mmHg 86%
    22:00 +3°C° 0 mm 4 m/S 744 mmHg 87%
    23:00 +3°C° 0 mm 4 m/S 744 mmHg 88%

    Morgen, 10 Dezember, Dienstag

    Zeit Temperatur Niederschläge Wind Luftdruck Luftfeuchtigkeit
    00:00 +3°C° 0 mm 4 m/S 745 mmHg 88%
    01:00 +3°C° 0 mm 4 m/S 746 mmHg 89%
    02:00 +3°C° 0 mm 3 m/S 746 mmHg 89%
    03:00 +1°C° 0 mm 4 m/S 746 mmHg 90%
    04:00 +1°C° 0 mm 4 m/S 747 mmHg 91%
    05:00 +1°C° 0 mm 4 m/S 747 mmHg 92%
    06:00 0°C° 0 mm 4 m/S 747 mmHg 92%
    07:00 0°C° 0 mm 4 m/S 747 mmHg 92%
    08:00 0°C° 0 mm 4 m/S 747 mmHg 93%
    09:00 0°C° 0 mm 4 m/S 748 mmHg 92%
    10:00 +1°C° 0 mm 4 m/S 748 mmHg 91%
    11:00 +1°C° 0 mm 4 m/S 748 mmHg 90%
    12:00 +1°C° 0 mm 4 m/S 748 mmHg 89%
    13:00 +3°C° 0 mm 4 m/S 748 mmHg 88%
    14:00 +3°C° 0 mm 4 m/S 749 mmHg 88%
    15:00 +3°C° 0.1 mm 4 m/S 749 mmHg 90%
    16:00 +3°C° 0.1 mm 3 m/S 750 mmHg 91%
    17:00 +3°C° 0.1 mm 3 m/S 750 mmHg 93%
    18:00 +2°C° 0.3 mm 3 m/S 751 mmHg 94%
    19:00 0°C° 0.3 mm 4 m/S 752 mmHg 94%
    20:00 0°C° 0.3 mm 4 m/S 753 mmHg 95%
    21:00 -1°C° 0.1 mm 4 m/S 753 mmHg 91%
    22:00 -1°C° 0.1 mm 3 m/S 754 mmHg 88%
    23:00 -1°C° 0.1 mm 3 m/S 754 mmHg 84%

    übermorgen, 11 Dezember, Mittwoch

    Zeit Temperatur Niederschläge Wind Luftdruck Luftfeuchtigkeit
    00:00 -2°C° 0 mm 3 m/S 755 mmHg 84%
    01:00 -2°C° 0 mm 2 m/S 756 mmHg 85%
    02:00 -3°C° 0 mm 2 m/S 757 mmHg 85%
    03:00 -3°C° 0 mm 2 m/S 757 mmHg 86%
    04:00 -1°C° 0 mm 1 m/S 757 mmHg 87%
    05:00 -2°C° 0 mm 1 m/S 757 mmHg 88%
    06:00 -2°C° 0 mm 1 m/S 758 mmHg 87%
    07:00 -2°C° 0 mm 1 m/S 758 mmHg 86%
    08:00 -2°C° 0 mm 1 m/S 758 mmHg 86%
    09:00 -1°C° 0 mm 1 m/S 758 mmHg 83%
    10:00 -1°C° 0 mm 1 m/S 758 mmHg 81%
    11:00 -3°C° 0 mm 2 m/S 758 mmHg 78%
    12:00 -2°C° 0 mm 2 m/S 758 mmHg 78%
    13:00 -2°C° 0 mm 2 m/S 758 mmHg 79%
    14:00 -2°C° 0 mm 2 m/S 758 mmHg 79%
    15:00 -2°C° 0 mm 2 m/S 758 mmHg 82%
    16:00 -2°C° 0 mm 2 m/S 758 mmHg 85%
    17:00 -2°C° 0 mm 2 m/S 758 mmHg 88%
    18:00 -2°C° 0 mm 2 m/S 758 mmHg 89%
    19:00 -2°C° 0 mm 3 m/S 758 mmHg 90%
    20:00 -2°C° 0 mm 3 m/S 758 mmHg 91%
    21:00 -2°C° 0 mm 3 m/S 758 mmHg 90%
    22:00 -1°C° 0 mm 3 m/S 757 mmHg 90%
    23:00 -1°C° 0 mm 3 m/S 757 mmHg 89%

    12 Dezember, Donnerstag

    Zeit Temperatur Niederschläge Wind Luftdruck Luftfeuchtigkeit
    00:00 -1°C° 0 mm 3 m/S 757 mmHg 87%
    01:00 -2°C° 0 mm 4 m/S 757 mmHg 86%
    02:00 -1°C° 0 mm 4 m/S 757 mmHg 84%
    03:00 -2°C° 0 mm 4 m/S 757 mmHg 85%
    04:00 -1°C° 0 mm 3 m/S 756 mmHg 86%
    05:00 -2°C° 0 mm 3 m/S 756 mmHg 87%
    06:00 -2°C° 0 mm 3 m/S 756 mmHg 88%
    07:00 -2°C° 0 mm 3 m/S 756 mmHg 89%
    08:00 -2°C° 0 mm 3 m/S 756 mmHg 90%
    09:00 -2°C° 0 mm 3 m/S 756 mmHg 88%
    10:00 -1°C° 0 mm 3 m/S 756 mmHg 85%
    11:00 -1°C° 0 mm 3 m/S 755 mmHg 82%
    12:00 0°C° 0 mm 3 m/S 755 mmHg 85%
    13:00 0°C° 0 mm 3 m/S 755 mmHg 88%
    14:00 0°C° 0 mm 3 m/S 754 mmHg 91%
    15:00 +1°C° 0 mm 3 m/S 754 mmHg 92%
    16:00 +1°C° 0 mm 3 m/S 753 mmHg 93%
    17:00 0°C° 0 mm 4 m/S 752 mmHg 95%
    18:00 0°C° 0.1 mm 4 m/S 752 mmHg 95%
    19:00 0°C° 0.1 mm 4 m/S 752 mmHg 96%
    20:00 0°C° 0.1 mm 4 m/S 751 mmHg 96%
    21:00 0°C° 0.2 mm 4 m/S 751 mmHg 96%
    22:00 0°C° 0.2 mm 4 m/S 751 mmHg 96%
    23:00 0°C° 0.2 mm 4 m/S 751 mmHg 95%

    13 Dezember, Freitag

    Zeit Temperatur Niederschläge Wind Luftdruck Luftfeuchtigkeit
    00:00 0°C° 0 mm 4 m/S 750 mmHg 94%
    01:00 0°C° 0 mm 4 m/S 750 mmHg 93%
    02:00 0°C° 0 mm 4 m/S 750 mmHg 91%
    03:00 0°C° 0 mm 4 m/S 750 mmHg 90%
    04:00 0°C° 0 mm 4 m/S 750 mmHg 88%
    05:00 0°C° 0 mm 4 m/S 750 mmHg 87%
    06:00 0°C° 0 mm 4 m/S 750 mmHg 87%
    07:00 0°C° 0 mm 4 m/S 750 mmHg 88%
    08:00 0°C° 0 mm 4 m/S 750 mmHg 88%
    09:00 0°C° 0 mm 4 m/S 750 mmHg 87%
    10:00 0°C° 0 mm 4 m/S 750 mmHg 85%
    11:00 +1°C° 0 mm 4 m/S 749 mmHg 84%
    12:00 0°C° 0 mm 4 m/S 749 mmHg 84%
    13:00 0°C° 0 mm 4 m/S 749 mmHg 84%
    14:00 0°C° 0 mm 4 m/S 749 mmHg 85%
    15:00 0°C° 0 mm 5 m/S 749 mmHg 84%
    16:00 0°C° 0 mm 5 m/S 748 mmHg 83%
    17:00 0°C° 0 mm 5 m/S 748 mmHg 83%
    18:00 0°C° 0 mm 5 m/S 748 mmHg 82%
    19:00 0°C° 0 mm 5 m/S 748 mmHg 82%
    20:00 0°C° 0 mm 5 m/S 748 mmHg 81%
    21:00 0°C° 0 mm 5 m/S 748 mmHg 81%
    22:00 -1°C° 0 mm 5 m/S 748 mmHg 80%
    23:00 -1°C° 0 mm 5 m/S 747 mmHg 79%

    14 Dezember, Samstag

    Zeit Temperatur Niederschläge Wind Luftdruck Luftfeuchtigkeit
    00:00 -1°C° 0 mm 5 m/S 747 mmHg 80%
    01:00 -1°C° 0 mm 5 m/S 747 mmHg 80%
    02:00 -1°C° 0 mm 5 m/S 747 mmHg 80%
    03:00 -1°C° 0 mm 5 m/S 747 mmHg 80%
    04:00 -1°C° 0 mm 5 m/S 747 mmHg 80%
    05:00 -1°C° 0 mm 5 m/S 746 mmHg 81%
    06:00 -1°C° 0 mm 5 m/S 746 mmHg 81%
    07:00 -1°C° 0 mm 5 m/S 746 mmHg 80%
    08:00 -1°C° 0 mm 5 m/S 746 mmHg 80%
    09:00 -1°C° 0 mm 5 m/S 746 mmHg 80%
    10:00 -1°C° 0 mm 5 m/S 747 mmHg 79%
    11:00 -1°C° 0 mm 5 m/S 747 mmHg 79%
    12:00 -1°C° 0 mm 5 m/S 746 mmHg 79%
    13:00 -1°C° 0 mm 5 m/S 746 mmHg 79%
    14:00 -1°C° 0 mm 5 m/S 746 mmHg 80%
    15:00 -1°C° 0 mm 5 m/S 746 mmHg 81%
    16:00 -1°C° 0 mm 4 m/S 746 mmHg 83%
    17:00 -2°C° 0 mm 4 m/S 746 mmHg 85%
    18:00 -2°C° 0.1 mm 4 m/S 746 mmHg 87%
    19:00 -3°C° 0.1 mm 4 m/S 746 mmHg 89%
    20:00 -4°C° 0.1 mm 5 m/S 746 mmHg 90%
    21:00 -3°C° 0.2 mm 4 m/S 745 mmHg 89%
    22:00 -3°C° 0.2 mm 4 m/S 745 mmHg 88%
    23:00 -3°C° 0.2 mm 4 m/S 745 mmHg 86%
    Mehr zeigen